Location: *
(51.5000°N, 0.1100°W)
Time: 20:57:18
(UTC+00:00)

Cosmos 1408 - Pass Details

Date: 25 May 2024
Orbit: 363 x 377 km, 82.6° (Epoch: 16 June)

Event Time Altitude Azimuth Distance (km) Brightness Sun altitude
Exits shadow 02:31:52 16° 217° (SW) 1,058 3.6 -10.0°
Maximum altitude 02:33:55 42° 284° (WNW) 538 2.6 -9.8°
Drops below altitude 10° 02:36:45 10° 358° (N) 1,367 5.7 -9.5°
Sets 02:38:48 0° 5° (N) 2,223 7.0 -9.3°
